Location: Brotuna
(46.2000°N, 22.6000°E)
Time: 13:25:24
(UTC+00:00)

Cosmos 2322 Rocket - Pass Details

Date: 09 April 2020
Orbit: 834 x 849 km, 71.0° (Epoch: 27 May)

Event Time Altitude Azimuth Distance (km) Brightness Sun altitude
Rises 21:36:34 0° 335° (NNW) 3,404 6.4 -34.4°
Reaches altitude 10° 21:39:03 10° 338° (NNW) 2,463 5.4 -34.6°
Enters shadow 21:42:46 41° 353° (N) 1,196 3.3 -34.7°
